"Pseudo-MPEC" for X83003

Created 2024 Sep 10 5:22:28 UT using Find_Orb

Click here for an explanation of pseudo-MPECs

 
 Astrometry: 
     X83003   C2024 09 04.69934622 41 34.07 +12 13 16.3 FixDup   21.1 RVNEOCPD29
     X83003 * C2024 09 04.69934622 41 34.07 +12 13 16.3 Duplicate21.1 RVNEOCPD29
     X83003   C2024 09 04.71348722 42 02.85 +12 16 07.0    ~955M 20.8 RVNEOCPD29
     X83003   C2024 09 04.72762922 42 31.64 +12 18 59.2    ~955M 21.6 RVNEOCPD29

Station data:
(D29) Purple Mountain Observatory, XuYi Station  (N32.734363 E118.463900)
   China.  Observers H. B. Zhao, B. Li, G. Zhaori, R. Q. Hong, L. F. Hu.
   Measurers H. B. Zhao, B. Li. H. Lu, G. Zhaori. 1.04-m f/1.8 Schmidt + CCD.

Orbital elements:  X83003
   Perihelion 2024 Sep 4.22017 +/- 20.4 TT =  5:17:03 (JD 2460557.72017)
Epoch 2024 Sep  5.0 TT = JDT 2460558.5   Earth MOID: 0.0262   Ma: 0.0044
M   0.17885475 +/- 8                (J2000 ecliptic)             AutoNEOCP
n   0.22935198 +/- 0.228            Peri.   74.65488 +/- 90
a   2.64322651 +/- 1.75             Node   267.18464 +/- 70
e   0.6089886 +/- 0.245             Incl.    0.49778 +/- 1.6
P   4.29736                H 28.38  G  0.15   U 11.7  SR
q 1.03353162 +/- 0.043    Q 4.25292139 +/- 48.9
From 4 observations 2024 Sept. 4 (40.7 min); mean residual 0".35
Residuals in arcseconds: 
240904 D29  .04-  .21+    240904 D29  .16+  .82-    
240904 D29  .04-  .21+    240904 D29  .08-  .41+    

Ephemerides (geocentric):
Date (UTC) HH   RA             Dec           delta  r     elong  mag " sig PA
---- --------  ------------   ------------  ------ ------ -----  --- --------
2024 09 10 05  01 17 26.472   +22 34 16.30  .03863 1.0365 139.3 23.0  31d  85
2024 09 10 06  01 18 13.652   +22 35 52.98  .03876 1.0366 139.2 23.0  31d  85
2024 09 10 07  01 19 00.514   +22 37 28.05  .03890 1.0366 139.1 23.0  31d  85
2024 09 10 08  01 19 47.060   +22 39 01.52  .03903 1.0367 139.0 23.0  31d  85
2024 09 10 09  01 20 33.291   +22 40 33.42  .03917 1.0367 138.8 23.0  32d  85
2024 09 10 10  01 21 19.210   +22 42 03.78  .03931 1.0367 138.7 23.0  32d  85
2024 09 10 11  01 22 04.818   +22 43 32.61  .03944 1.0368 138.6 23.0  32d  85
2024 09 10 12  01 22 50.118   +22 44 59.93  .03958 1.0368 138.5 23.0  32d  85
2024 09 10 13  01 23 35.111   +22 46 25.77  .03972 1.0369 138.4 23.0  32d  84
2024 09 10 14  01 24 19.800   +22 47 50.14  .03986 1.0369 138.3 23.1  32d  84
2024 09 10 15  01 25 04.186   +22 49 13.08  .04000 1.0370 138.2 23.1  32d  84
2024 09 10 16  01 25 48.272   +22 50 34.59  .04014 1.0370 138.0 23.1  32d  84
2024 09 10 17  01 26 32.059   +22 51 54.70  .04028 1.0371 137.9 23.1  32d  84
2024 09 10 18  01 27 15.549   +22 53 13.43  .04042 1.0371 137.8 23.1  32d  84
2024 09 10 19  01 27 58.745   +22 54 30.80  .04056 1.0371 137.7 23.1  32d  84
2024 09 10 20  01 28 41.648   +22 55 46.83  .04070 1.0372 137.6 23.1  32d  84
2024 09 10 21  01 29 24.261   +22 57 01.53  .04084 1.0372 137.5 23.1  32d  84
2024 09 10 22  01 30 06.584   +22 58 14.93  .04098 1.0373 137.4 23.1  32d  84
2024 09 10 23  01 30 48.621   +22 59 27.05  .04112 1.0373 137.3 23.1  33d  84
2024 09 11 00  01 31 30.373   +23 00 37.90  .04126 1.0374 137.2 23.2  33d  84
2024 09 11 01  01 32 11.842   +23 01 47.50  .04141 1.0374 137.1 23.2  33d  84
2024 09 11 02  01 32 53.030   +23 02 55.87  .04155 1.0375 137.0 23.2  33d  84
2024 09 11 03  01 33 33.939   +23 04 03.04  .04169 1.0375 136.9 23.2  33d  84
2024 09 11 04  01 34 14.572   +23 05 09.00  .04184 1.0376 136.8 23.2  33d  84
2024 09 11 05  01 34 54.929   +23 06 13.79  .04198 1.0376 136.7 23.2  33d  84
2024 09 11 06  01 35 35.013   +23 07 17.42  .04212 1.0377 136.6 23.2  33d  84
2024 09 11 07  01 36 14.825   +23 08 19.91  .04227 1.0377 136.5 23.2  33d  84
2024 09 11 08  01 36 54.369   +23 09 21.27  .04241 1.0378 136.4 23.2  33d  84
2024 09 11 09  01 37 33.645   +23 10 21.52  .04256 1.0378 136.3 23.2  33d  84
2024 09 11 10  01 38 12.656   +23 11 20.68  .04270 1.0379 136.2 23.3  33d  84
2024 09 11 11  01 38 51.402   +23 12 18.76  .04285 1.0379 136.1 23.3  33d  84
2024 09 11 12  01 39 29.888   +23 13 15.78  .04299 1.0380 136.0 23.3  33d  84
2024 09 11 13  01 40 08.113   +23 14 11.75  .04314 1.0380 135.9 23.3  33d  84
2024 09 11 14  01 40 46.081   +23 15 06.70  .04329 1.0381 135.9 23.3  33d  84
2024 09 11 15  01 41 23.792   +23 16 00.62  .04343 1.0381 135.8 23.3  33d  84
2024 09 11 16  01 42 01.250   +23 16 53.55  .04358 1.0382 135.7 23.3  33d  84
2024 09 11 17  01 42 38.455   +23 17 45.49  .04373 1.0382 135.6 23.3  33d  84
2024 09 11 18  01 43 15.409   +23 18 36.46  .04388 1.0383 135.5 23.3  33d  84
2024 09 11 19  01 43 52.115   +23 19 26.47  .04402 1.0383 135.4 23.3  34d  84
2024 09 11 20  01 44 28.574   +23 20 15.54  .04417 1.0384 135.3 23.4  34d  84
2024 09 11 21  01 45 04.788   +23 21 03.68  .04432 1.0384 135.2 23.4  34d  84
2024 09 11 22  01 45 40.759   +23 21 50.90  .04447 1.0385 135.2 23.4  34d  83
2024 09 11 23  01 46 16.489   +23 22 37.22  .04462 1.0385 135.1 23.4  34d  83
2024 09 12 00  01 46 51.979   +23 23 22.66  .04477 1.0386 135.0 23.4  34d  83
2024 09 12 01  01 47 27.231   +23 24 07.22  .04492 1.0387 134.9 23.4  34d  83
2024 09 12 02  01 48 02.247   +23 24 50.92  .04507 1.0387 134.8 23.4  34d  83
2024 09 12 03  01 48 37.029   +23 25 33.76  .04522 1.0388 134.8 23.4  34d  83
2024 09 12 04  01 49 11.578   +23 26 15.77  .04537 1.0388 134.7 23.4  34d  83